#timestamp,LO_Frequency,Hit 
1502161215.3,286047015.6,N
1502161235.2,286047012.9,N
1502161255.9,286047015.1,N
1502161275.7,286047013.8,N
1502161295.5,286047009.3,N
1502161315.4,286047012.1,N
1502161335.2,286047011.0,N
1502161355.1,286047012.3,P
1502161356.0,286047012.3,P
1502161375.8,286047005.7,P
1502161395.6,286047007.3,N
1502161415.5,286047008.6,P
1502161435.3,286046997.5,P
1502161455.1,286046993.8,N
1502161475.9,286046995.9,N
1502161495.7,286046995.0,N
1502161515.5,286046998.9,N
1502161535.3,286046997.2,N
1502161555.2,286046995.1,N
1502161575.0,286046993.5,N
1502161575.9,286046993.5,N
1502161595.7,286046994.7,N
1502161615.6,286046993.8,N
1502161635.4,286046990.1,N
1502161655.2,286046990.7,N
1502161675.1,286046992.7,N
1502161676.0,286046992.7,N
1502161695.8,286046997.1,N
1502161715.6,286046995.2,N
1502161735.5,286046997.1,N
1502161755.3,286046996.5,N
1502161775.1,286047004.0,N
1502161795.9,286047000.0,N
1502161815.7,286047003.6,N
1502161835.5,286047003.7,N
1502161855.3,286047003.6,N
1502161875.2,286047001.6,N
1502161895.0,286046998.3,N
1502161895.9,286046998.3,N
1502161915.7,286046995.0,N
1502161935.6,286046994.6,N
1502161955.4,286046994.0,N
1502161975.2,286046990.4,N
1502161995.1,286046992.7,N
1502161996.0,286046992.7,N
1502162015.8,286046991.8,N
1502162035.6,286046996.1,N
1502162055.5,286046993.9,N
1502162075.3,286046997.9,N
1502162095.1,286047000.6,N
1502162115.9,286046996.8,N
1502162135.7,286046996.9,N
1502162155.5,286046995.9,N
1502162175.4,286046995.7,N
1502162195.2,286046998.0,N
1502162215.0,286046997.3,N
1502162215.9,286046997.3,N
1502162235.8,286046999.0,N
1502162255.6,286046998.2,N
1502162275.4,286047002.8,N
1502162295.2,286047002.6,N
1502162315.1,286046998.3,N
1502162316.0,286046998.3,N
1502162335.8,286046995.0,N
1502162355.6,286046995.0,N
1502162375.5,286046993.6,N
1502162395.3,286046992.1,N
1502162415.1,286046996.0,N
1502162435.9,286046996.8,N
1502162455.7,286046993.6,N
1502162475.5,286046994.6,N
1502162495.4,286046994.1,N
1502162515.2,286046999.2,N
1502162535.0,286046999.9,N
1502162535.9,286046999.9,N
1502162555.8,286046996.6,N
1502162575.6,286046997.5,N
1502162595.4,286046998.6,N
1502162615.3,286046998.7,N
1502162635.1,286047000.3,N
1502162636.0,286047000.3,N
1502162655.8,286047000.8,N
1502162675.6,286046999.8,N
1502162695.5,286046998.9,N
1502162715.3,286046998.1,N
1502162735.1,286046999.5,N
1502162755.9,286046995.5,N
1502162775.7,286046993.3,N
1502162795.5,286046995.9,N
1502162815.4,286047001.1,N
1502162835.2,286047001.2,N
1502162855.0,286046997.4,N
1502162855.9,286046997.4,N
1502162875.8,286046997.4,N
1502162895.6,286047000.3,N
1502162915.4,286047004.3,N
1502162935.3,286047003.7,N
1502162955.1,286047001.3,N
1502162956.0,286047001.3,N
1502162975.8,286047001.3,N
1502162995.6,286047002.4,N
1502163015.5,286046999.7,N
1502163035.3,286047001.3,N
1502163055.1,286047001.7,N
1502163075.9,286047001.4,N
1502163095.7,286046996.6,N
1502163115.5,286046997.4,N
1502163135.4,286046997.7,N
1502163155.2,286046998.0,N
1502163175.0,286046995.4,N
1502163175.9,286046995.4,N
1502163195.8,286046997.5,N
1502163215.6,286046995.8,N
1502163235.4,286046995.0,N
1502163255.3,286046995.4,N
1502163275.1,286046997.9,N
1502163276.0,286046997.9,N
1502163295.8,286046999.6,N
1502163315.7,286046996.5,N
1502163335.5,286047000.2,N
1502163355.3,286047001.2,N
1502163375.2,286046998.4,N
1502163395.9,286046998.5,N
1502163415.7,286046997.8,N
1502163435.6,286046996.3,N
1502163455.4,286046994.6,N
1502163475.2,286046994.1,N
1502163495.0,286046993.3,N
1502163495.9,286046993.3,N
1502163515.8,286046994.0,N
1502163535.6,286046993.8,N
1502163555.4,286046991.5,P
1502163575.3,286046988.3,P
1502163595.1,286046988.4,P
1502163615.9,286046987.4,P
1502163635.7,286046999.3,N
1502163655.5,286046999.0,N
1502163675.3,286046996.9,N
1502163695.2,286046998.0,N
1502163715.0,286046999.5,N
1502163715.9,286046999.5,N
1502163735.7,286047000.3,N
1502163755.6,286047000.8,N
1502163775.4,286047000.8,N
1502163795.2,286047000.3,N
1502163815.1,286047001.2,N
1502163816.0,286047001.2,N
1502163835.8,286046998.2,N
1502163855.6,286046999.0,N
1502163875.5,286046999.0,N
1502163895.3,286046999.4,N
1502163915.1,286047003.8,N
1502163935.9,286047007.5,N
1502163955.7,286047003.4,N
1502163975.5,286047001.7,N
1502163995.4,286047004.9,N
1502164015.2,286047007.3,N
1502164035.0,286047006.3,N
1502164035.9,286047006.3,N
1502164055.7,286047004.6,N
1502164075.6,286047012.0,N
1502164095.4,286047009.0,N
1502164115.2,286047010.6,N
1502164135.1,286047008.2,N
1502164136.0,286047008.2,N
1502164155.8,286047009.4,N
1502164175.6,286047010.1,N
1502164195.5,286047013.1,P
1502164215.3,286047009.8,N
1502164235.1,286047010.2,N
1502164255.9,286047011.4,P
1502164275.7,286047004.0,P
1502164295.5,286047000.0,N
1502164315.4,286046998.2,N
1502164335.2,286046998.2,N
1502164355.0,286046999.4,N
1502164355.9,286046999.4,N
1502164375.8,286046997.4,N
1502164395.6,286046995.7,N
1502164415.4,286046994.9,N
1502164435.3,286046996.5,N
1502164455.1,286047000.7,N
1502164456.0,286047000.7,N
1502164475.8,286046998.5,N
1502164495.7,286046996.8,N
1502164515.5,286046996.1,N
1502164535.3,286046994.0,N
1502164555.2,286046998.7,N
1502164575.9,286046997.8,N
1502164595.7,286046997.6,N
1502164615.6,286046997.7,N
1502164635.4,286046996.6,N
1502164655.2,286046993.3,N
1502164675.0,286046991.8,N
1502164675.9,286046991.8,N
1502164695.8,286046993.5,N
1502164715.6,286046995.5,N
1502164735.4,286046993.7,N
1502164755.3,286046999.1,N
1502164775.1,286047001.0,N
1502164795.8,286046999.4,N
